Location: Shepherdstown, WV
(39.4326°N, 77.8042°W)
Time: 20:47:00
(UTC-04:00)

Transit 2A - Pass Details

Date: 10 August 2021
Orbit: 594 x 964 km, 66.7° (Epoch: 24 September)

Event Time Altitude Azimuth Distance (km) Brightness Sun altitude
Exits shadow 04:33:36 22° 174° (S) 1,336 7.0 -18.5°
Maximum altitude 04:36:03 45° 113° (ESE) 852 6.4 -18.1°
Drops below altitude 10° 04:40:26 10° 41° (NE) 2,067 9.5 -17.4°
Sets 04:42:54 0° 35° (NE) 3,035 10.6 -17.1°
